Skip Page Navigation
NASA JPL Caltech
NASA Logo - Jet Propulsion Laboratory + View the NASA Portal
+ Center for Near-Earth Object Studies
JPL Home Earth Solar System Stars & Galaxies Technology
JPL Solar System Dynamics
BODIES ORBITS EPHEMERIDES TOOLS PHYSICAL DATA DISCOVERY FAQ SITE MAP
JPL Small-Body Database Browser
Search: [ help ]  
97720 (2000 GF115)
Classification: Main-belt Asteroid          SPK-ID: 2097720
Ephemeris | Orbit Diagram | Orbital Elements | Mission Design | Physical Parameters | Discovery Circumstances | Close-Approach Data ]

[ show orbit diagram ]
Orbital Elements at Epoch 2459000.5 (2020-May-31.0) TDB
Reference: JPL 19 (heliocentric ecliptic J2000)
 Element Value Uncertainty (1-sigma)   Units 
e .1706447186487274 5.5778e-08  
a 3.033510626756061 2.5775e-08 au
q 2.515858059335349 1.693e-07 au
i 9.220589112768076 6.2705e-06 deg
node 30.22956059644164 2.5097e-05 deg
peri 185.7569478912621 2.7742e-05 deg
M 274.5807251165272 1.2623e-05 deg
tp 2459458.399413777813
(2021-Aug-31.89941378)
7.045e-05 TDB
period 1929.819577430143
5.28
2.4596e-05
6.734e-08
d
yr
n .1865459363198069 2.3775e-09 deg/d
Q 3.551163194176775 3.0173e-08 au
  Orbit Determination Parameters
   # obs. used (total)      577  
   data-arc span      6904 days (18.90 yr)  
   first obs. used      2000-03-03  
   last obs. used      2019-01-27  
   planetary ephem.      DE431  
   SB-pert. ephem.      SB431-N16  
   condition code      0  
   norm. resid. RMS      .47821  
   source      ORB  
   producer      Otto Matic  
   solution date      2019-Jul-13 07:28:14  

Additional Information
 Earth MOID = 1.5094 au 
 Jupiter MOID = 1.42001 au 
 T_jup = 3.201 
[ show covariance matrix ]

Ephemeris | Orbit Diagram | Orbital Elements | Mission Design | Physical Parameters | Discovery Circumstances | Close-Approach Data ]

Physical Parameter Table
Parameter Symbol Value Units Sigma Reference Notes
absolute magnitude H 14.7   n/a MPO417489  
diameter diameter 3.522 km 0.316 urn:nasa:pds:neowise_diameters_albedos::2.0[mainbelt] (http://adsabs.harvard.edu/abs/2011ApJ...741...68M)  
geometric albedo albedo 0.226   0.048 urn:nasa:pds:neowise_diameters_albedos::2.0[mainbelt] (http://adsabs.harvard.edu/abs/2011ApJ...741...68M)  

97720 (2000 GF115)          Discovered 2000-Apr-08 by LINEAR at Socorro
Reference: 20050224/Numbers.arcLast Updated: 2005-02-28

[ show close-approach data ]
Alternate Designations
 2000 GF115 = 2001 OX51 
Ephemeris | Orbit Diagram | Orbital Elements | Mission Design | Physical Parameters | Discovery Circumstances | Close-Approach Data ]
ABOUT SSD CREDITS/AWARDS PRIVACY/COPYRIGHT GLOSSARY LINKS
FirstGov 2020-Jul-06 00:47 UT
(server date/time)  
NASA Home Page
Site Manager:   Ryan S. Park
Webmaster  Alan B. Chamberlin